Theta_e
330 337 338 331 327 327 327 325 324 327 328 327 326 327 332 337 330 328 340 343 334 336 344 344 345 348 348 349 350 351 353 356 357 357 358 357 356 355 355 356 355 355 356 352 346 344 345 346 346 346 345 346 346 346 347 347 347 347 348 349 349 350 352 353 352 352 352 352 353 353 354 356 357 357 355 353 352 350 350 351 350 348 348 347 347 347 346
327 328 326 329 328 325 325 326 326 327 327 325 325 329 334 337 334 336 342 341 338 339 340 340 343 344 344 348 351 352 355 357 357 357 358 357 356 354 353 354 354 354 353 349 343 343 346 345 345 345 345 345 346 346 346 346 345 347 347 348 349 349 351 351 352 353 352 353 353 353 354 356 357 357 355 354 353 351 350 351 352 351 350 348 347 346 346
322 328 327 328 326 324 323 324 327 326 323 325 325 327 337 342 339 340 343 339 340 343 340 340 344 346 348 351 353 355 356 355 356 356 357 356 354 352 351 352 352 351 351 346 341 343 345 345 345 345 345 345 345 346 346 345 345 346 346 347 347 347 348 349 350 351 352 352 353 353 354 355 355 355 354 353 353 353 351 350 351 353 352 350 347 346 346
319 329 324 323 325 324 322 323 329 327 322 324 326 328 343 353 344 343 341 335 340 348 346 346 349 350 351 352 353 356 355 355 355 354 354 353 351 350 351 351 350 351 352 348 342 343 344 344 345 345 344 345 345 345 345 344 345 346 345 345 343 344 344 345 346 348 349 351 352 352 353 354 354 355 354 354 353 354 353 351 350 351 353 352 350 347 346
322 329 321 322 321 317 321 331 334 332 328 330 331 330 340 348 344 341 337 335 344 350 347 349 351 350 350 351 352 353 353 353 353 352 352 350 349 351 350 349 350 350 348 345 342 343 344 344 345 344 344 344 344 344 344 344 345 344 343 343 341 341 342 342 343 345 346 349 350 351 352 353 353 354 355 355 355 354 354 352 350 350 352 353 352 349 348
322 330 327 325 317 314 327 343 338 332 334 335 336 335 339 342 343 345 344 344 349 347 344 348 351 350 351 351 350 350 350 351 352 351 350 348 349 349 347 347 349 345 341 341 343 344 344 344 344 343 343 343 343 344 344 343 343 341 340 340 338 339 340 340 340 341 343 345 346 347 350 351 352 353 354 356 357 355 355 354 351 351 352 354 352 350 349
322 329 324 317 317 328 348 346 332 331 336 342 346 344 345 347 346 349 350 347 349 348 345 348 351 354 354 352 352 351 348 350 352 350 349 348 348 347 346 348 347 340 338 342 343 344 343 343 343 342 341 343 343 343 342 340 339 338 337 337 337 338 338 338 338 339 340 341 342 343 345 347 350 351 352 354 356 356 356 355 354 353 353 354 354 351 350
323 322 317 317 327 345 353 337 330 336 335 339 345 341 341 345 344 345 349 349 352 354 351 351 353 354 354 354 355 353 349 349 350 349 349 348 346 345 344 344 343 339 339 342 343 343 342 341 341 341 342 343 343 341 339 337 336 336 336 336 336 337 337 337 337 338 338 338 339 340 342 344 346 348 350 351 352 355 356 356 355 354 353 354 354 352 350
327 322 322 328 328 329 336 334 331 336 332 334 345 343 339 342 341 344 350 353 354 353 351 352 351 349 351 355 355 353 352 351 349 348 346 344 342 342 339 339 340 339 341 343 342 341 340 339 340 342 342 342 340 338 337 336 336 336 335 334 335 335 336 336 336 336 337 337 337 339 340 342 344 345 347 348 350 351 353 354 354 353 353 352 351 350 350
332 327 324 327 319 320 341 347 333 332 336 338 346 341 335 339 341 344 351 353 351 351 350 351 350 349 354 358 355 350 350 351 349 346 342 338 338 339 337 337 339 340 341 342 340 339 339 340 341 341 341 340 338 337 336 336 336 335 335 334 334 335 335 335 335 336 336 336 337 338 339 342 343 344 346 347 348 349 350 352 352 352 352 351 350 350 351
331 327 322 324 320 324 350 360 342 334 333 335 338 331 329 339 342 342 348 350 348 348 351 351 350 350 355 360 356 351 348 348 347 345 342 338 337 338 339 338 339 341 341 340 338 338 339 339 340 339 338 337 336 336 336 336 335 335 334 334 334 334 334 334 334 335 335 335 336 336 338 340 343 345 347 347 348 349 350 351 352 352 352 351 351 351 352
331 330 324 324 323 327 342 350 343 335 332 332 330 322 327 343 344 340 345 346 344 348 351 349 346 347 356 360 353 349 347 346 343 341 341 340 338 338 339 338 339 340 339 338 338 338 338 338 338 338 337 336 336 336 336 335 335 335 334 334 334 334 334 334 334 334 334 334 334 335 337 339 340 344 346 347 348 349 349 350 351 351 351 351 350 351 351
330 327 321 321 326 336 343 340 339 339 333 329 324 323 334 347 342 339 342 342 343 346 347 347 347 352 358 356 349 345 346 347 343 338 337 339 339 339 338 338 339 339 337 337 337 337 337 337 337 337 336 336 336 336 335 335 335 334 334 334 334 333 333 332 332 332 333 334 334 334 335 337 338 340 342 344 346 348 349 349 349 349 349 349 349 349 348
327 327 322 319 326 343 347 339 341 338 326 327 333 339 343 342 339 340 341 340 341 343 345 354 361 359 352 349 346 345 345 347 345 337 335 337 337 337 338 338 338 337 337 337 337 336 336 336 335 336 336 336 336 336 335 335 334 334 334 334 333 332 331 331 330 331 332 333 333 334 334 335 336 337 338 341 343 344 345 346 346 345 344 343 342 341 340
325 325 322 317 325 346 345 331 336 337 333 343 355 350 341 339 340 343 341 340 342 345 352 360 359 352 347 345 346 346 345 346 343 336 334 336 335 336 338 337 336 337 336 335 336 336 335 334 335 335 335 335 336 335 335 334 334 334 334 333 332 329 329 329 330 330 331 332 332 333 333 333 334 334 335 337 339 340 341 341 341 339 337 336 334 332 332
325 321 324 327 336 349 342 330 340 350 352 356 353 341 339 341 341 342 343 344 346 350 356 355 349 348 348 345 345 345 343 342 339 335 333 333 331 333 336 336 336 335 334 333 334 335 334 333 333 334 334 334 335 335 335 335 334 334 334 334 332 328 327 328 330 330 331 332 332 332 333 332 332 332 332 333 333 334 335 335 334 332 330 330 329 327 327
336 332 341 348 348 345 338 337 348 351 346 344 339 336 340 341 339 343 346 348 350 351 351 350 348 348 347 344 343 341 336 333 332 330 328 327 328 331 335 335 334 331 330 332 333 333 333 332 332 332 333 334 335 335 335 335 334 332 331 332 331 328 327 328 329 330 331 332 332 332 331 331 331 331 330 330 330 330 330 329 328 327 327 327 326 325 324
342 338 345 350 346 341 338 341 347 348 347 346 340 335 339 341 341 344 347 349 351 349 347 348 347 345 343 342 339 334 330 329 329 325 323 324 327 330 333 333 329 326 326 327 329 330 331 330 330 330 330 331 332 333 334 334 332 329 328 329 329 328 328 328 329 330 332 332 332 332 330 330 330 330 330 329 329 328 328 327 327 326 326 325 325 324 324
341 337 343 349 344 340 340 343 346 350 356 357 347 338 338 341 343 345 348 348 347 345 345 346 344 342 340 337 334 331 330 331 331 327 324 324 326 328 329 327 325 323 324 324 324 325 326 327 328 328 328 328 329 331 333 332 330 329 329 329 329 329 328 327 328 329 330 330 331 331 329 329 329 329 329 329 329 328 328 328 327 327 326 325 325 325 324
346 344 347 351 346 339 342 348 349 349 353 357 355 345 339 342 345 347 348 346 344 344 343 342 341 340 337 333 333 333 331 331 330 326 323 323 324 324 325 324 324 324 323 323 323 324 324 325 326 326 328 328 328 330 331 330 329 329 329 329 329 328 328 328 327 327 327 329 331 330 329 329 329 328 328 328 328 328 328 328 328 327 326 326 325 325 325
352 349 344 347 347 340 343 348 350 351 353 356 356 349 343 345 349 349 346 344 343 342 341 339 339 338 334 333 334 333 331 331 329 325 323 323 322 322 323 323 323 323 323 323 323 325 326 326 325 325 326 327 327 329 330 330 329 328 328 328 329 328 328 328 327 326 326 327 328 327 326 326 326 327 328 328 328 328 327 327 327 326 326 326 325 325 324
353 352 348 349 347 343 347 349 348 349 352 354 355 352 349 349 349 348 348 346 343 341 338 338 338 336 335 334 333 332 331 329 326 323 323 323 321 320 321 321 321 322 323 324 325 327 328 328 326 325 324 325 329 330 330 330 330 329 328 329 329 329 329 328 327 326 325 324 324 323 323 323 324 325 326 327 327 327 327 327 327 327 326 325 325 325 323
353 354 355 354 352 352 354 353 351 352 350 351 353 352 350 349 348 347 348 347 345 343 340 336 335 336 336 334 332 332 330 326 323 324 324 322 321 320 319 320 321 322 323 325 327 329 329 328 327 325 324 327 330 331 330 330 330 330 330 331 330 330 329 328 327 327 325 324 323 322 322 323 322 323 323 324 325 327 327 327 326 326 325 324 323 323 321
349 349 354 357 356 356 354 352 353 352 347 347 352 350 348 350 348 346 346 346 345 345 343 337 334 335 336 333 331 331 329 325 324 324 323 322 321 320 320 321 322 324 325 326 328 329 329 329 329 327 326 329 331 330 330 331 330 331 332 332 331 331 330 329 328 327 325 324 323 322 322 322 322 322 322 322 323 325 325 324 323 322 322 321 321 320 320
345 345 351 356 357 356 354 351 350 349 347 346 346 346 346 347 347 347 350 350 346 343 342 340 335 334 335 333 330 329 327 325 324 324 323 322 321 320 321 322 323 325 327 326 328 329 329 329 329 327 326 329 330 330 331 332 332 333 333 332 332 331 330 330 328 327 325 324 323 322 322 322 322 322 323 322 322 323 322 322 321 321 321 321 321 321 321
344 344 345 349 351 352 354 352 347 348 349 347 343 345 347 347 345 345 347 346 342 339 339 339 337 335 336 333 330 328 327 326 326 325 324 324 324 323 323 324 325 327 328 328 329 329 328 328 329 326 326 328 330 329 330 331 333 334 333 332 332 332 331 330 328 327 326 324 323 323 323 323 323 323 323 323 322 322 321 321 321 321 321 321 321 321 321
346 343 339 340 344 349 352 351 347 347 349 348 347 348 344 339 338 339 339 338 338 337 337 337 336 336 335 334 331 329 328 326 326 326 326 326 326 325 325 326 328 328 329 329 329 328 329 331 330 327 326 328 329 330 330 331 332 334 334 333 333 333 332 330 328 327 326 325 325 325 324 324 324 324 323 323 322 322 322 321 321 321 321 321 321 322 321
346 343 337 335 342 350 350 348 347 349 348 346 343 341 337 335 338 341 343 343 340 338 337 337 337 336 336 335 332 330 328 326 325 326 327 326 326 325 326 328 329 328 329 329 329 330 331 332 329 327 327 327 328 329 330 330 331 333 334 334 334 334 333 330 328 327 327 326 326 325 325 324 324 323 323 323 322 322 322 322 321 321 321 321 322 323 322
347 347 342 338 343 350 351 348 349 348 345 342 341 339 338 339 340 343 346 346 344 342 340 338 337 336 336 335 334 331 327 326 325 326 327 327 326 325 327 329 329 329 328 328 329 331 331 329 328 327 326 326 326 328 329 329 330 332 334 335 334 333 332 330 329 329 328 327 326 325 324 323 322 322 323 322 322 322 322 321 321 321 320 320 321 322 322
349 350 346 342 343 346 351 353 350 343 341 344 348 348 345 345 345 345 345 345 346 347 341 335 336 338 336 335 334 331 328 327 327 326 327 327 326 325 327 330 331 329 326 326 328 330 330 328 326 326 326 326 326 326 329 330 330 330 332 333 333 332 331 330 330 329 328 328 327 325 324 322 321 321 322 322 322 322 322 321 321 321 321 321 321 320 321
348 346 345 346 344 342 347 353 351 344 342 345 349 349 349 349 349 348 347 348 350 349 341 335 336 338 336 335 335 332 329 329 328 326 327 329 328 327 328 330 330 328 326 325 327 330 330 326 324 325 327 327 326 326 328 330 329 329 330 331 332 332 331 329 329 329 328 328 327 326 324 324 323 321 321 321 321 322 322 321 321 320 320 321 320 320 320
342 340 342 346 346 343 347 352 352 348 346 346 348 351 351 350 350 351 351 350 347 344 341 341 340 338 336 336 335 333 331 330 329 328 328 329 330 330 331 331 330 328 326 324 326 330 329 325 322 323 325 327 327 327 327 328 329 328 328 329 331 332 332 331 329 329 329 329 328 326 325 325 324 323 322 320 319 320 320 320 320 320 320 319 319 320 320
339 336 336 340 342 342 347 352 353 352 351 349 350 353 353 351 352 352 347 342 340 337 338 340 339 337 336 336 335 334 333 333 331 330 329 329 330 331 331 331 330 329 326 324 326 330 330 326 322 322 323 325 328 329 328 328 329 328 328 328 329 330 331 332 331 330 330 329 328 327 326 326 326 325 324 321 319 318 318 319 319 319 319 319 319 320 321
343 342 339 339 338 336 339 345 350 352 352 349 348 351 350 347 344 341 336 335 337 338 335 334 335 336 337 336 335 335 335 334 334 333 331 330 329 330 330 330 330 329 326 324 326 330 330 327 323 322 322 324 327 328 329 328 327 326 327 328 327 327 328 329 330 331 331 330 329 328 328 327 327 327 326 324 321 318 318 318 319 319 320 320 320 320 321
341 343 342 341 337 334 337 345 349 349 349 348 347 346 342 336 335 334 333 334 337 336 333 331 333 335 335 335 334 334 334 335 335 334 332 331 330 329 329 330 330 329 327 326 327 330 330 328 323 319 319 322 325 326 327 326 324 324 325 326 326 327 327 327 328 329 330 330 330 329 328 328 328 328 328 326 324 320 318 318 320 321 321 321 321 321 322
337 342 345 344 339 336 339 344 346 345 348 351 350 345 338 332 332 334 335 334 334 333 332 331 332 332 333 333 333 332 334 335 335 334 333 333 331 330 331 331 330 330 329 329 329 329 330 328 323 317 316 319 323 325 327 326 324 323 323 325 326 326 325 325 326 326 327 329 330 329 328 327 327 327 327 327 326 323 320 318 319 320 321 321 322 322 323
336 340 345 344 338 334 334 335 336 338 342 343 343 341 338 334 333 335 335 335 334 333 332 332 332 332 333 333 332 332 333 335 335 335 334 333 332 331 332 331 330 330 330 330 330 330 329 328 324 318 315 316 318 321 323 325 325 324 324 325 325 325 324 324 324 325 326 328 328 327 327 327 326 326 325 325 325 325 323 320 318 319 320 321 322 323 323
335 335 336 336 334 332 332 332 331 333 338 341 339 338 338 338 337 337 337 335 334 333 333 333 333 333 333 332 332 331 332 335 336 335 334 333 332 332 332 330 330 330 330 329 330 330 328 326 324 322 318 317 317 319 320 322 324 325 325 326 325 325 324 323 324 326 327 327 326 325 325 325 325 325 325 323 324 325 325 323 320 318 318 319 321 321 322
338 336 334 334 334 333 333 333 331 331 335 339 337 335 336 339 340 339 338 335 334 334 332 331 331 332 332 331 331 332 333 335 337 336 334 333 333 332 332 331 331 330 330 329 329 329 328 326 326 325 322 320 321 323 323 323 323 322 322 323 325 324 323 323 324 326 327 326 326 325 325 325 325 325 325 324 324 324 324 324 322 320 319 319 320 321 322
342 341 336 335 336 335 332 332 333 331 332 333 334 333 334 337 339 338 337 335 334 333 331 330 330 332 332 331 332 333 334 336 337 336 334 334 333 332 331 331 331 330 330 329 329 329 328 327 327 326 323 322 324 325 325 325 325 322 320 322 322 322 322 323 324 325 326 326 326 326 326 326 326 325 326 326 325 325 325 325 324 323 323 322 322 322 322
341 338 335 334 335 335 333 333 334 333 332 333 334 334 334 336 337 338 337 336 334 333 332 332 332 332 333 333 333 334 334 336 338 337 335 334 333 331 331 331 331 331 330 329 329 330 329 327 327 328 325 324 324 325 325 325 325 324 322 322 321 320 321 323 324 325 325 325 325 325 325 324 324 323 324 325 325 325 326 325 325 325 325 324 322 321 322
337 336 336 337 335 334 334 333 332 332 332 334 335 336 336 336 337 337 337 337 335 334 333 333 333 333 333 333 333 333 335 336 337 337 336 334 333 332 331 331 331 331 330 330 330 330 329 328 328 329 327 324 324 325 325 325 325 324 323 322 320 319 319 320 323 325 324 324 324 323 322 322 322 322 321 322 324 325 326 326 325 325 325 322 320 319 320
336 336 339 339 336 335 335 334 333 332 332 332 333 335 336 336 336 336 336 336 335 333 333 333 334 333 333 333 333 334 335 336 336 336 335 334 334 333 332 332 331 331 330 330 330 330 330 329 329 328 327 324 322 323 325 325 324 323 323 322 320 319 318 318 320 322 322 321 321 320 319 319 321 322 321 321 322 323 325 326 326 325 324 322 320 319 318
334 335 337 336 336 336 336 335 335 334 333 331 332 334 334 333 333 333 334 335 335 334 333 333 334 334 333 333 333 334 334 335 335 335 334 333 333 333 332 332 331 331 330 330 330 330 330 330 329 328 326 323 321 320 322 323 323 322 321 320 319 319 319 319 319 320 319 319 319 319 319 320 321 321 321 321 320 320 321 323 325 324 324 323 321 319 319
333 335 336 337 337 337 336 335 335 335 334 333 333 334 334 333 332 332 333 334 334 333 333 333 334 334 333 333 333 334 335 335 335 335 334 332 332 332 332 331 331 331 330 330 330 330 330 330 330 329 326 322 319 320 322 323 323 323 321 319 318 319 321 321 321 319 319 318 318 319 321 321 320 320 321 320 319 319 319 320 321 322 323 324 323 322 321
333 334 335 336 338 337 336 335 333 333 334 334 333 333 334 335 335 334 335 335 334 333 333 333 333 333 333 333 333 334 335 335 335 335 334 333 333 333 333 332 332 331 331 331 331 331 331 330 329 326 321 318 320 322 323 323 324 323 321 319 318 319 321 322 321 319 319 318 318 319 320 320 319 319 320 320 319 319 319 319 319 320 321 322 323 323 322
331 332 333 335 337 337 335 333 332 331 333 336 335 333 332 334 335 335 335 334 334 333 333 333 333 333 333 333 333 334 334 334 333 334 334 333 332 332 333 333 332 332 331 331 331 331 331 329 326 322 319 318 321 324 324 324 324 322 319 317 317 319 320 320 320 319 319 319 318 318 319 319 318 318 319 319 319 319 319 319 319 319 319 319 320 321 321
331 331 332 333 336 336 333 331 330 330 331 333 334 333 332 333 334 335 334 333 333 333 333 333 333 333 333 333 333 334 334 334 334 333 333 332 332 332 332 333 332 331 330 331 331 330 329 326 323 320 319 319 321 323 324 325 323 320 316 315 317 319 319 319 319 319 319 319 318 318 318 317 317 318 318 318 318 318 318 318 318 318 318 318 318 318 318
331 331 331 333 335 335 332 330 329 330 330 331 332 333 333 333 333 333 333 333 332 333 333 333 333 333 333 333 333 333 333 334 335 334 333 332 332 331 331 332 331 330 329 329 329 329 328 325 321 319 319 318 319 322 324 323 320 317 316 316 317 319 320 320 320 319 319 319 318 318 317 316 317 317 317 317 317 318 317 317 317 317 317 317 317 317 316
331 331 332 333 334 334 332 330 330 330 331 331 333 334 333 331 330 331 332 332 331 332 333 333 333 333 332 332 331 331 332 333 334 333 333 332 332 332 332 332 331 329 327 326 327 328 326 322 319 318 319 318 319 320 321 318 316 316 317 318 319 320 320 319 319 319 318 318 318 317 316 316 316 316 316 317 317 316 316 316 317 316 316 316 316 315 315
331 330 331 332 333 333 333 333 332 332 332 333 334 335 333 331 329 329 331 331 330 330 331 332 333 333 333 332 331 332 332 332 333 333 333 332 332 332 331 330 329 328 326 324 325 326 324 321 318 318 319 319 318 317 316 316 316 318 319 320 320 320 319 319 318 317 317 317 317 316 315 315 315 315 315 316 316 315 315 316 316 315 315 315 315 315 315
330 330 330 330 331 330 330 331 331 332 334 335 335 335 334 333 331 331 331 331 330 330 330 330 331 332 332 332 332 332 332 332 333 333 332 331 331 331 329 329 328 328 326 325 325 325 324 322 320 319 319 319 318 315 313 315 318 320 320 320 320 320 319 319 318 317 316 316 315 315 314 314 314 314 315 315 315 315 315 315 315 315 315 315 314 314 314
Wind_Speed
6 6 5 6 5 4 5 4 6 8 5 4 6 5 7 11 8 7 9 12 15 12 11 13 13 13 14 13 12 11 10 10 9 8 9 8 7 7 6 6 6 6 6 5 6 7 6 6 6 5 4 3 3 3 4 5 5 5 5 3 3 3 3 5 6 5 6 10 12 14 15 15 13 14 17 19 20 18 13 11 15 21 26 30 32 32 33
5 5 5 4 2 3 4 5 8 8 5 4 5 5 11 11 6 7 13 14 12 9 10 14 13 11 12 10 10 10 10 11 10 10 9 8 7 7 7 7 6 6 6 6 6 7 6 6 6 5 4 3 3 4 4 5 6 5 4 3 2 2 2 4 4 4 5 7 9 12 15 16 15 14 12 10 13 19 20 16 13 14 18 24 29 30 32
3 4 4 3 4 5 4 5 9 5 0 1 2 3 8 6 0 5 12 12 6 4 7 10 9 8 9 10 10 11 11 11 11 10 9 8 7 8 8 7 6 6 6 6 6 7 6 6 5 4 3 2 3 4 5 5 5 5 5 4 3 2 2 3 4 3 4 6 7 8 11 14 15 14 11 10 15 21 24 23 19 13 13 18 24 27 29
4 3 5 3 2 2 3 5 7 4 2 1 2 2 4 6 7 9 10 7 5 4 6 8 6 8 12 12 12 11 9 10 11 10 9 8 9 9 8 7 7 6 6 6 6 7 7 6 5 3 2 2 2 3 4 5 5 5 4 4 4 4 3 4 4 3 3 4 6 8 9 11 13 13 12 15 18 19 21 25 24 19 14 15 20 26 29
4 5 5 2 3 4 5 5 5 6 5 3 0 3 0 7 12 10 7 7 6 6 9 10 8 10 12 12 11 10 9 9 10 10 10 10 10 9 8 7 7 7 6 7 8 9 8 7 5 3 1 1 2 4 4 3 3 3 3 3 4 4 4 5 5 5 5 5 5 6 8 10 12 13 14 16 19 19 20 23 26 23 18 15 15 21 27
5 7 2 1 1 1 5 6 6 6 5 7 5 2 1 7 8 7 6 5 5 7 10 13 12 10 10 10 10 10 10 9 9 9 10 10 9 8 7 8 7 6 7 9 10 10 8 7 5 3 1 1 2 3 2 2 2 3 3 3 4 5 6 6 7 7 7 7 7 6 6 9 11 13 15 16 17 18 18 20 24 26 24 20 16 16 20
3 4 2 2 4 7 7 5 1 5 8 11 10 4 3 6 8 10 10 9 8 7 9 11 10 8 7 7 6 7 9 10 10 10 9 9 9 9 8 7 6 7 9 11 10 10 8 6 5 2 1 2 1 1 2 3 3 4 4 4 5 5 6 7 8 8 8 10 10 10 8 8 10 12 14 16 16 17 17 18 21 24 25 24 22 18 16
1 1 2 4 7 6 4 4 2 6 8 10 10 6 2 5 11 14 11 8 8 8 8 8 8 7 8 6 3 3 6 9 10 10 9 9 9 9 9 9 9 11 12 13 12 10 7 5 3 2 2 2 2 2 2 4 4 4 4 5 6 6 7 9 9 9 10 11 12 12 11 10 10 11 13 15 16 17 17 17 18 19 21 23 23 20 16
2 2 1 3 4 5 5 2 1 2 3 6 8 4 2 2 8 14 13 10 9 9 8 8 9 8 8 6 4 2 3 7 9 9 9 9 10 10 12 14 14 14 15 14 12 9 7 5 4 3 3 4 3 2 3 3 4 5 6 7 8 8 8 9 10 10 12 12 12 11 11 11 11 12 12 13 14 16 17 17 17 17 18 18 18 18 18
1 4 1 2 1 3 6 5 5 4 5 6 8 7 0 4 3 13 16 13 11 11 10 10 9 8 7 5 1 2 3 7 8 8 8 11 14 14 15 16 15 15 16 15 12 10 8 7 5 5 4 4 2 2 3 3 4 6 7 8 7 7 7 8 9 10 10 11 11 10 10 10 10 11 11 11 11 13 14 16 17 17 17 16 14 16 21
1 5 3 1 2 4 7 8 8 2 6 7 7 6 0 3 4 9 15 15 13 13 13 10 9 8 5 5 5 4 5 8 9 8 8 11 15 18 18 18 17 17 18 16 13 11 9 8 6 5 4 3 3 4 3 4 6 6 6 6 6 6 6 7 7 7 8 8 9 9 8 7 6 7 9 9 9 10 11 12 13 15 16 15 15 16 20
4 4 3 2 2 5 6 7 6 1 6 9 8 2 5 4 6 8 13 15 13 12 13 10 8 7 6 6 6 6 7 8 8 10 11 12 15 17 18 18 18 19 19 17 14 12 9 8 6 5 4 4 4 4 4 5 5 5 5 5 5 5 6 7 7 7 7 8 8 7 6 5 4 3 5 7 8 9 9 10 11 13 13 14 14 14 15
6 5 4 2 2 5 6 6 4 2 7 8 6 5 7 7 9 9 11 15 12 12 12 8 6 6 5 7 9 8 8 8 7 10 14 17 18 19 17 16 17 20 19 16 14 11 8 7 6 5 5 4 4 4 4 5 5 4 4 5 5 5 6 8 9 9 9 9 9 9 7 5 3 2 1 2 4 5 7 7 8 8 9 10 10 10 11
5 4 4 3 3 6 6 3 2 2 4 2 4 6 5 11 13 10 9 12 12 11 10 7 5 4 5 10 12 9 9 9 7 9 13 15 15 16 15 15 19 21 18 15 14 11 8 6 5 4 4 4 4 4 3 4 6 5 4 5 5 5 7 9 10 11 11 11 11 11 11 10 9 8 6 4 3 3 4 5 5 6 6 6 5 3 3
2 2 3 4 4 6 3 3 2 1 3 5 5 3 6 12 13 10 8 9 9 9 8 6 7 9 10 12 12 9 9 8 7 10 13 13 12 14 16 18 20 21 17 15 14 12 8 6 5 4 4 4 4 3 3 4 6 4 2 4 6 8 9 9 10 11 11 12 12 13 13 14 14 14 12 10 9 8 7 7 8 9 9 9 9 9 8
2 2 3 4 5 6 4 2 4 4 5 6 7 9 7 7 8 8 7 7 8 9 10 9 10 12 11 11 10 9 8 8 8 9 12 13 14 16 19 20 20 19 17 14 13 13 10 8 6 5 4 3 3 3 3 3 3 2 1 4 5 9 10 8 9 10 11 13 14 14 15 16 17 18 17 15 14 13 13 14 15 15 14 14 16 17 16
1 3 5 5 5 6 3 1 3 3 4 3 8 13 10 6 6 7 7 7 7 9 12 12 11 11 11 10 10 9 8 8 9 10 11 14 15 16 18 19 19 19 18 16 15 13 11 8 6 4 2 2 3 3 2 3 4 5 6 7 6 8 9 10 10 11 12 14 15 16 17 18 19 19 19 18 18 17 17 18 19 19 19 19 20 21 20
2 3 4 4 5 5 3 6 5 5 6 3 3 10 11 7 7 7 8 9 9 10 13 12 10 9 10 10 10 10 10 9 9 11 12 13 15 17 19 19 19 19 19 18 16 13 10 7 5 3 2 2 2 3 5 6 6 7 9 11 12 12 11 12 14 15 15 16 16 17 19 21 21 20 20 20 20 20 20 21 20 20 21 21 21 22 22
2 1 4 5 5 5 6 7 7 7 7 4 3 7 9 8 8 8 10 11 11 11 13 13 11 10 12 12 11 9 10 10 9 10 11 12 15 18 19 20 20 20 18 15 14 11 8 6 5 4 4 5 5 6 8 9 9 9 13 16 17 15 13 13 16 18 18 18 19 20 21 22 23 23 22 21 21 21 20 20 20 20 21 21 22 22 22
0 2 7 9 5 4 6 6 5 5 7 6 5 5 6 7 8 8 10 12 12 11 11 13 13 12 12 14 12 9 9 9 8 9 12 15 17 19 20 21 21 19 17 14 12 10 7 4 4 4 4 5 6 8 10 11 11 14 18 19 17 14 13 13 16 19 20 21 22 22 22 23 24 24 23 22 22 21 19 19 20 20 20 20 21 21 21
2 1 5 9 6 4 7 7 5 4 5 8 8 6 6 8 8 8 8 9 10 11 12 13 14 13 12 12 13 11 9 8 8 10 14 17 19 20 20 20 18 17 16 14 12 9 7 5 5 5 5 5 5 6 8 10 12 14 16 16 14 13 12 13 15 19 21 23 24 24 24 26 26 25 24 22 22 21 20 20 22 23 23 22 22 23 23
3 3 3 2 1 2 4 5 6 4 3 8 11 9 8 9 9 9 9 7 7 9 12 13 14 13 11 11 13 12 9 9 11 15 17 18 19 20 20 19 17 17 15 13 11 9 7 7 6 5 5 5 5 5 8 12 14 14 14 13 12 12 12 12 14 16 18 19 21 23 25 28 30 30 28 25 24 24 23 24 26 28 29 29 29 31 32
4 6 5 3 4 3 5 5 5 6 1 8 10 9 8 8 8 9 11 10 8 8 8 11 15 14 11 12 14 11 9 12 17 19 20 20 19 19 20 20 18 16 14 11 10 9 8 7 7 7 7 7 7 6 10 16 16 14 13 13 13 13 12 12 13 14 15 16 18 22 25 27 30 32 32 31 30 30 30 32 34 35 36 36 36 38 40
4 5 5 3 3 3 4 4 5 5 0 7 9 8 7 7 7 8 10 11 11 10 8 10 15 16 14 14 16 13 11 14 19 21 21 23 22 21 21 20 18 15 13 12 11 10 8 7 6 7 9 9 9 12 15 18 19 16 14 15 16 15 14 13 14 16 17 18 20 22 23 25 26 29 31 33 32 32 34 38 38 38 38 38 37 37 38
3 5 5 3 3 4 5 4 6 6 3 4 7 7 7 7 8 8 8 8 9 12 11 9 13 19 19 16 17 17 15 16 21 23 22 22 22 21 21 20 18 15 14 13 11 9 8 8 8 10 10 10 12 15 18 19 19 18 17 17 17 17 16 16 17 18 18 19 20 21 22 23 24 25 28 30 30 31 33 35 35 34 33 31 30 29 29
4 6 5 3 2 4 4 3 5 7 7 4 6 6 6 8 10 9 9 9 9 13 13 10 12 19 22 21 20 21 19 19 23 25 23 20 20 21 21 20 18 16 14 13 11 11 10 9 9 10 11 11 13 15 15 16 18 18 17 18 18 17 17 18 19 19 19 20 21 22 22 22 23 24 25 27 29 30 29 28 28 27 26 25 25 25 24
3 5 4 3 4 4 3 3 3 4 6 6 6 5 6 11 13 11 10 10 10 12 15 15 16 17 19 22 23 23 22 23 23 22 22 21 21 22 23 21 19 17 15 13 12 11 9 6 6 9 12 12 12 12 13 16 18 18 17 19 18 16 16 18 20 20 21 22 22 22 22 21 22 23 24 26 27 27 26 25 24 23 23 25 26 26 26
2 5 4 2 3 3 2 4 4 5 7 7 6 5 6 10 12 10 8 8 9 10 12 16 19 17 14 17 20 20 20 21 20 19 20 22 23 24 24 22 19 18 17 15 12 9 6 5 7 9 10 11 10 11 14 16 18 19 19 20 20 18 18 19 20 21 21 22 23 23 22 22 23 23 24 25 26 25 25 25 24 23 24 25 25 25 25
2 4 4 4 4 4 4 5 6 7 7 7 6 6 5 6 8 7 6 6 7 7 8 11 15 17 16 17 19 17 16 17 18 20 22 24 26 26 25 22 20 19 17 15 12 8 7 8 9 8 8 10 12 15 17 17 17 18 20 21 21 21 21 20 21 21 21 21 22 23 23 24 24 25 25 25 25 24 24 23 23 24 24 23 22 23 23
5 4 3 5 5 1 4 5 6 6 2 2 3 5 5 6 7 5 4 5 5 6 8 9 11 15 17 18 19 20 20 20 21 24 25 26 27 28 26 23 20 17 16 15 12 9 8 9 10 8 8 10 13 17 18 17 15 16 19 20 20 22 22 22 22 22 22 22 22 22 23 25 25 25 25 24 24 23 23 22 22 22 21 21 20 21 21
2 2 3 6 6 2 4 4 5 6 6 5 3 5 5 7 7 4 4 4 4 4 7 8 10 13 17 19 21 23 24 24 24 25 26 27 28 28 28 26 21 18 18 17 14 11 11 10 10 10 9 12 16 19 18 16 15 17 19 20 20 21 22 22 23 23 23 22 22 22 22 23 24 25 25 24 23 22 21 20 20 20 19 19 18 18 18
1 3 3 4 5 2 4 5 5 5 5 4 5 5 4 5 7 6 5 4 4 4 5 7 10 13 17 20 21 21 22 23 25 25 25 25 27 28 28 27 24 22 22 20 15 13 13 12 12 11 10 12 17 20 19 17 18 19 20 20 20 21 22 22 22 23 23 22 22 22 22 21 22 23 24 24 24 23 21 20 19 18 17 17 16 16 17
3 1 2 1 2 1 3 4 5 6 6 5 5 5 5 4 6 6 5 4 5 4 4 6 9 13 17 19 20 21 22 21 20 21 22 24 26 28 28 26 25 23 22 21 18 15 14 14 13 11 10 11 15 19 20 20 20 21 20 19 20 21 22 21 22 22 22 22 22 23 22 22 22 22 23 23 23 23 22 21 20 18 17 16 15 16 18
5 5 5 4 2 1 2 4 5 5 5 5 4 5 5 5 5 6 6 6 5 5 6 8 11 15 18 18 17 19 21 16 12 15 20 23 26 28 28 26 25 24 22 21 19 17 16 15 14 11 10 11 14 18 22 22 21 20 19 19 21 21 19 18 20 22 22 21 22 23 22 22 23 22 22 22 22 22 22 22 21 19 18 17 16 17 17
3 3 3 3 2 1 2 3 5 5 5 5 4 5 6 6 6 7 8 8 7 7 9 11 11 12 14 14 13 15 17 16 15 17 22 26 28 29 28 26 24 23 22 22 21 19 18 17 15 13 11 11 13 16 20 21 19 18 18 19 19 17 14 14 16 20 21 22 22 23 23 23 23 22 21 21 22 22 23 23 22 21 20 20 18 17 15
4 4 3 3 3 2 2 3 4 5 5 5 5 5 6 7 9 9 9 9 11 13 13 13 11 8 7 9 11 11 14 18 21 22 23 26 29 29 28 26 25 24 22 22 22 21 19 18 17 15 13 13 13 14 16 18 19 18 19 20 17 12 11 12 13 14 19 22 24 24 24 23 22 22 21 21 22 22 22 23 23 23 22 22 20 18 15
5 5 4 4 5 4 4 2 1 5 6 6 6 6 7 9 12 14 11 12 18 21 20 18 17 14 13 15 16 13 14 15 20 22 22 25 29 29 27 25 25 23 20 20 23 23 21 19 18 16 14 14 15 15 15 16 18 19 20 19 16 11 9 9 8 10 17 24 26 26 25 24 24 23 23 23 23 22 22 22 23 24 23 23 21 18 16
6 6 5 4 4 5 5 6 4 1 6 6 7 10 12 13 15 15 13 15 23 26 24 22 21 21 20 21 20 18 19 19 19 21 22 25 27 27 24 23 24 24 22 23 25 25 22 20 18 16 15 16 17 16 14 14 16 17 18 17 15 12 9 6 6 10 17 24 28 28 26 25 25 26 26 25 24 23 23 23 23 24 24 23 22 19 16
6 7 6 6 6 5 6 6 6 1 4 6 7 10 12 13 14 14 13 17 23 26 25 21 19 18 18 17 18 19 22 21 19 20 22 24 26 26 24 25 29 29 27 26 26 25 23 21 19 18 18 18 16 15 14 13 14 16 16 14 14 13 9 6 7 11 17 21 25 26 25 24 26 27 28 28 27 26 25 25 25 23 23 23 22 19 17
4 4 5 4 4 4 3 3 3 1 3 6 8 8 7 8 10 11 11 15 21 24 23 21 18 15 15 17 18 20 22 22 21 22 23 23 24 23 20 21 27 28 26 25 25 24 23 22 20 20 20 19 17 15 14 14 14 15 14 13 14 12 9 7 10 13 15 16 17 18 18 18 20 21 23 27 30 30 28 27 27 24 22 22 22 20 19
3 4 4 3 3 3 0 3 3 1 2 4 6 7 8 9 11 12 12 15 19 22 23 22 20 18 19 22 22 22 22 21 21 23 24 23 21 17 13 15 23 27 26 25 25 25 24 24 23 22 22 20 18 17 16 15 15 15 15 14 13 11 9 10 13 15 15 14 13 12 11 12 12 12 13 18 25 30 31 29 28 26 23 21 21 21 22
5 5 4 4 5 5 2 4 4 2 4 5 6 8 10 10 11 12 13 15 19 21 22 23 22 21 22 22 21 20 20 20 21 23 25 25 23 19 15 16 23 28 27 26 26 25 25 26 25 23 22 21 20 18 17 16 17 17 16 14 14 12 10 12 15 16 15 13 11 10 10 9 10 11 9 10 16 25 30 31 29 26 24 22 22 23 23
4 3 3 4 4 3 0 3 3 3 5 6 7 8 10 11 10 11 12 13 16 19 21 21 20 19 19 19 18 18 18 19 21 22 22 22 24 25 22 20 23 26 27 27 27 26 27 27 26 24 23 22 20 19 18 18 18 18 17 16 15 14 12 11 12 14 13 11 11 11 11 10 9 10 10 9 11 17 24 29 29 28 25 24 24 24 22
6 4 3 3 1 1 1 1 2 2 4 6 6 7 9 11 11 12 13 14 16 17 20 21 20 19 19 19 19 18 18 20 21 21 17 14 16 20 22 23 25 27 28 28 28 28 28 27 26 24 23 22 20 19 18 18 18 19 19 18 17 15 13 11 12 13 14 12 10 10 10 11 11 10 11 12 11 12 14 19 24 27 27 26 25 23 21
8 7 5 3 0 1 1 2 1 2 4 6 5 6 8 9 11 12 12 13 15 17 19 20 20 21 21 21 20 20 21 22 23 23 19 13 11 15 19 21 25 28 29 29 29 28 27 26 25 23 22 21 20 18 17 18 18 18 18 17 17 15 13 13 14 16 16 13 10 10 11 13 13 12 12 12 11 9 10 13 15 19 23 25 24 23 22
8 7 6 5 3 3 3 3 3 4 4 4 4 6 7 7 8 10 11 12 14 16 18 20 21 22 23 22 20 17 16 16 20 24 25 20 17 18 20 20 23 28 31 30 29 27 26 25 24 22 20 20 20 18 17 18 18 16 15 16 16 14 14 16 18 19 16 13 11 12 13 13 13 13 13 13 12 11 11 13 13 13 16 19 21 22 22
7 6 6 6 6 5 4 4 5 4 3 2 4 6 7 7 8 10 11 12 13 15 17 20 22 23 25 25 24 21 18 16 15 19 24 23 18 18 21 22 23 27 30 30 28 26 25 24 23 21 19 19 19 18 17 18 16 14 15 16 14 13 15 20 22 20 17 15 14 14 13 12 12 12 12 13 13 12 12 13 13 13 13 14 15 17 18
4 5 6 6 6 7 6 5 4 4 4 5 6 8 9 9 9 10 10 10 12 14 16 18 21 23 25 27 28 28 27 22 16 16 22 24 20 18 21 23 24 26 29 29 27 25 24 23 23 22 20 19 19 19 19 17 15 13 15 16 14 13 18 23 23 20 19 19 18 16 14 12 11 11 12 12 13 12 12 12 12 13 14 14 14 14 15
3 5 6 5 4 6 7 6 4 4 6 8 8 9 10 10 9 9 9 9 11 12 14 17 19 21 24 26 27 27 28 26 21 20 25 27 23 20 21 23 24 27 29 29 28 26 24 23 23 23 21 20 21 20 19 16 15 15 16 15 14 16 22 25 22 21 22 20 17 16 15 13 12 12 13 13 13 12 11 11 12 12 13 14 14 14 14
6 6 7 6 5 7 8 7 6 7 8 9 8 9 9 9 8 8 9 10 10 11 12 15 17 19 22 23 23 23 24 24 22 21 24 27 26 23 22 24 26 26 26 26 27 27 25 23 22 23 21 21 20 19 17 16 15 15 14 15 17 22 25 24 22 22 21 19 17 16 15 13 13 14 14 13 13 12 11 11 12 13 13 14 14 14 15
8 9 10 9 7 7 9 10 10 9 9 9 8 10 11 11 10 9 11 12 12 11 12 13 15 18 20 20 20 19 20 21 20 20 23 27 26 23 23 25 27 28 26 25 25 26 25 23 22 22 22 21 19 17 17 16 15 14 14 17 22 25 25 23 22 21 20 18 17 16 14 14 14 14 13 13 12 12 12 13 14 14 14 14 14 15 16
10 12 10 6 4 5 8 10 11 10 9 9 9 11 13 13 10 9 10 12 14 15 15 13 13 16 19 20 19 19 20 21 21 21 24 25 25 24 25 27 29 30 30 27 25 25 25 24 23 24 24 22 18 16 16 17 14 13 16 22 25 25 23 22 22 21 19 17 16 14 14 14 13 13 13 13 12 12 12 14 14 13 13 14 14 14 15
Wind_Direction
209 198 220 215 176 182 203 218 257 268 273 168 167 192 171 149 153 197 201 179 173 177 175 172 174 169 165 169 171 166 158 155 151 147 151 156 158 162 158 152 158 157 150 156 154 146 139 126 116 104 87 69 42 31 24 23 29 26 23 18 13 8 327 305 308 288 252 242 239 236 235 231 229 237 240 240 247 255 252 238 229 229 230 231 231 230 228
189 199 246 252 214 202 203 221 245 261 268 199 194 199 176 169 190 189 175 178 183 178 175 176 173 165 161 161 160 154 150 153 151 152 160 165 161 159 156 156 161 154 148 154 150 139 133 129 123 104 82 65 39 28 18 15 22 29 33 30 15 360 329 331 337 322 288 267 254 243 238 234 232 239 244 237 237 241 244 245 241 236 234 232 230 229 225
217 214 210 245 276 252 221 239 250 252 248 203 211 179 170 164 107 150 154 164 194 218 179 164 155 143 140 143 150 152 154 155 153 158 167 165 158 157 158 157 154 148 147 147 142 136 135 134 126 105 78 54 42 37 24 20 26 36 50 59 53 31 350 357 13 353 294 278 272 259 246 243 242 241 235 232 238 237 234 237 240 244 247 237 229 228 228
261 243 185 194 313 337 333 292 256 214 153 231 252 208 174 146 122 118 128 152 202 215 155 134 135 141 140 147 153 152 156 159 157 163 166 160 158 160 159 154 148 146 146 146 149 146 142 137 123 100 78 55 46 34 19 19 31 42 54 54 41 33 10 353 3 3 318 286 277 270 262 254 248 245 240 239 244 243 237 237 239 244 257 252 235 229 228
266 261 210 195 50 30 336 283 220 190 172 152 65 324 271 139 134 134 156 186 188 162 142 134 144 152 148 151 155 152 159 163 160 160 158 156 160 160 157 152 147 148 153 155 156 152 143 139 133 118 106 74 31 21 16 24 44 51 52 30 9 6 357 339 338 339 322 309 297 276 267 263 254 251 250 245 242 243 242 240 237 239 249 254 244 231 226
266 267 239 73 33 250 259 244 201 185 167 131 107 23 111 134 130 129 146 145 116 130 147 148 154 161 155 155 158 156 156 157 157 157 154 155 156 152 149 148 144 151 156 153 151 148 143 143 147 149 135 58 28 23 38 67 65 45 26 6 351 345 341 332 328 325 310 304 307 297 277 267 259 254 252 249 243 244 247 243 236 235 239 243 244 236 226
241 274 70 98 226 225 240 262 183 120 117 112 102 78 95 123 112 100 101 106 116 139 150 146 146 143 128 130 142 149 152 151 149 151 153 153 150 146 146 146 149 158 157 151 147 144 145 148 149 145 102 81 95 101 77 60 43 28 7 354 349 342 336 329 324 320 312 304 302 302 296 281 268 260 257 254 248 245 247 247 243 239 240 243 245 242 232
223 323 112 192 235 248 277 310 49 93 96 97 88 52 16 134 125 115 110 117 131 135 131 126 125 119 108 92 75 129 151 148 144 148 155 155 150 150 151 152 159 163 158 153 150 146 147 153 144 127 133 145 150 129 53 32 32 26 10 360 359 353 343 335 328 323 320 315 308 303 300 292 279 269 264 259 250 243 243 248 252 250 247 245 245 245 244
188 148 193 248 264 286 307 328 131 136 130 129 121 108 293 254 128 123 124 131 136 130 125 124 123 116 103 78 24 360 127 136 138 144 149 148 146 149 152 154 158 162 158 153 149 143 143 154 157 157 168 172 158 110 43 23 23 19 10 6 1 355 347 341 333 326 323 322 318 311 304 297 285 273 268 265 255 244 241 245 251 254 253 251 250 250 250
127 115 76 338 346 257 265 249 227 192 152 148 133 121 154 290 163 137 135 140 143 133 129 134 129 111 102 110 256 294 120 124 125 126 133 140 142 146 149 152 156 157 154 148 144 143 144 148 160 168 172 173 152 100 67 29 13 7 3 1 359 354 348 344 338 332 330 328 325 321 313 304 293 277 268 267 259 246 243 247 253 256 256 255 252 248 244
142 115 127 170 168 236 249 246 258 242 130 123 101 93 162 260 198 153 140 142 150 144 142 147 135 118 129 176 221 227 152 133 129 128 132 138 143 148 151 155 158 156 150 145 142 145 144 144 157 170 173 168 138 106 75 28 10 5 358 353 355 359 354 349 347 344 345 346 341 333 322 315 305 277 259 256 253 246 245 250 254 254 251 247 243 242 242
183 141 148 188 207 246 246 245 263 260 105 101 99 130 251 218 185 176 152 149 157 152 148 150 142 145 172 189 197 191 158 138 134 138 141 143 147 152 158 162 158 150 146 144 143 144 146 148 161 174 171 157 129 96 64 40 28 19 13 9 4 8 10 9 10 10 11 15 15 4 344 330 322 276 246 241 237 239 243 248 251 250 248 247 245 243 243
184 173 183 200 225 238 235 242 247 125 81 79 118 205 230 173 170 191 164 151 157 155 152 158 168 190 196 159 155 162 149 135 132 137 144 149 153 158 164 161 150 143 145 146 145 144 144 148 165 180 176 160 122 93 76 66 63 56 53 46 29 25 34 36 35 34 36 40 42 41 35 23 18 25 271 222 208 209 215 224 235 236 235 234 234 233 235
186 175 175 192 246 242 217 204 215 135 105 132 203 214 186 154 165 186 167 153 158 158 157 161 160 166 150 133 137 147 144 140 133 131 139 145 150 155 155 147 142 142 142 143 143 141 140 146 165 181 174 146 114 112 113 91 80 74 75 71 54 50 54 51 48 49 52 57 59 59 60 62 61 62 68 83 108 137 166 179 173 165 173 179 175 177 202
168 130 152 177 223 253 233 116 72 82 175 203 203 165 150 157 163 168 159 157 160 151 145 140 129 128 128 130 135 140 141 139 132 132 137 136 134 134 133 136 142 144 141 142 144 144 145 150 155 154 142 128 131 157 159 117 89 62 72 99 75 59 56 54 54 58 63 67 70 68 66 68 69 69 75 87 99 110 127 137 133 126 125 122 108 91 81
129 143 199 199 216 259 269 196 196 199 184 182 156 134 145 168 161 152 151 159 159 145 136 133 132 131 132 135 136 133 132 132 127 128 132 133 131 131 134 139 144 142 139 140 141 143 144 136 129 133 134 139 165 179 162 130 98 40 114 145 95 58 54 57 62 69 75 77 77 73 72 74 74 73 75 83 91 99 110 116 113 106 102 102 97 86 77
237 199 225 243 257 273 295 131 186 159 120 136 146 141 147 169 167 154 149 150 152 142 135 134 136 137 138 138 135 129 126 126 124 123 126 127 126 129 136 140 139 135 133 133 136 141 142 134 131 140 156 192 199 177 133 121 115 105 123 139 118 77 69 72 76 81 85 85 83 77 72 73 75 75 76 79 80 83 89 93 94 93 91 92 92 89 84
296 242 247 287 304 306 24 73 87 91 78 56 139 142 146 161 165 155 148 150 153 146 138 135 137 141 140 134 129 127 124 122 121 120 118 115 115 121 130 134 131 128 126 127 130 133 138 144 146 133 109 125 156 152 135 126 123 118 116 114 106 95 88 85 86 90 91 92 92 85 76 73 75 78 81 83 83 82 82 84 85 87 88 90 91 90 88
18 274 290 318 328 329 11 56 71 73 74 73 131 153 158 161 159 155 149 147 148 146 140 138 139 142 139 132 128 128 125 123 123 120 114 109 111 118 126 130 130 128 125 124 126 128 135 149 148 125 106 101 103 120 134 133 123 113 110 108 104 98 92 87 88 89 88 89 91 87 80 77 77 78 81 85 85 83 83 85 86 88 89 91 92 90 88
233 217 291 305 298 314 360 29 55 64 73 84 103 144 156 142 139 148 147 143 144 144 141 140 139 141 140 136 134 132 128 126 126 122 118 116 116 119 126 131 132 131 128 128 129 128 129 143 162 154 131 107 102 115 133 139 128 113 109 109 104 96 88 85 88 87 85 85 87 86 84 83 80 78 78 81 82 82 85 91 93 92 91 91 91 92 93
309 239 300 313 315 352 9 10 19 48 91 99 94 102 121 123 129 138 137 137 143 145 145 143 140 140 143 140 135 133 131 131 128 125 122 122 122 125 130 133 134 133 133 134 134 128 119 125 152 159 140 125 118 120 137 148 142 129 121 115 105 97 92 89 90 90 87 87 88 86 85 84 82 80 82 83 84 84 88 96 102 102 99 97 97 98 97
301 238 234 264 288 321 321 330 346 357 91 111 107 112 124 131 140 138 125 112 120 135 144 145 139 139 144 142 135 133 135 136 133 129 125 123 125 129 131 132 132 133 133 134 133 128 123 126 136 145 141 134 125 134 156 159 147 134 131 124 114 108 102 94 93 93 90 89 89 87 86 86 85 85 86 87 89 90 91 96 101 103 102 102 103 103 101
241 246 239 194 161 218 258 275 309 314 28 110 110 121 131 135 143 141 132 126 124 127 138 144 141 141 145 143 136 132 135 139 136 133 131 129 130 132 133 132 132 132 135 137 135 132 133 131 134 141 140 128 113 124 159 169 163 149 138 131 123 118 111 104 102 100 96 95 95 93 92 92 91 90 88 86 88 93 96 98 98 99 100 100 100 101 102
246 268 264 220 189 236 266 294 321 315 80 114 109 112 120 125 135 136 134 137 138 136 137 146 146 144 142 142 139 134 135 140 137 134 134 136 137 137 136 136 138 141 145 145 140 137 135 129 131 142 140 128 117 117 133 152 159 153 141 132 125 120 118 115 111 108 106 105 103 100 98 97 97 95 93 90 88 92 99 102 101 100 100 101 101 101 103
257 290 287 251 231 261 285 322 354 354 11 101 111 116 124 128 127 124 123 128 138 142 143 150 152 147 141 140 140 139 141 144 141 137 136 137 139 140 140 142 148 153 155 152 148 147 141 128 132 146 144 134 129 125 125 132 139 137 133 132 127 123 123 123 118 115 113 110 107 105 104 102 101 100 100 99 98 99 102 103 102 102 102 102 102 103 103
253 286 302 309 297 306 326 4 20 9 4 38 97 117 123 114 109 110 118 127 143 150 148 149 152 148 145 145 145 144 144 145 143 140 138 140 143 145 146 151 157 161 162 160 158 155 143 127 128 144 149 142 138 135 131 132 134 134 134 135 132 128 128 128 124 121 119 116 113 110 108 107 106 104 105 108 110 110 109 107 104 103 102 101 100 101 102
295 307 323 343 331 332 11 78 75 29 21 42 74 91 100 103 102 101 105 114 127 136 138 142 146 147 147 149 148 146 146 145 143 142 144 147 151 153 154 157 161 166 170 170 167 161 151 137 135 146 150 149 148 147 144 140 139 140 142 140 135 132 132 130 128 126 124 121 118 115 113 112 111 111 111 114 116 116 115 114 109 105 105 106 102 100 103
335 312 305 274 249 247 162 116 96 59 40 43 66 83 92 99 104 106 106 110 114 114 121 135 143 145 146 148 146 146 147 146 144 146 151 154 157 158 158 159 163 171 177 177 171 164 156 151 150 151 155 161 162 160 154 145 140 144 148 146 140 138 138 136 133 131 129 127 124 122 121 119 117 118 119 120 121 121 120 118 114 111 113 113 107 101 105
230 263 281 283 253 205 131 90 71 53 24 13 41 69 82 92 98 108 120 126 128 125 121 131 140 144 148 150 150 152 151 149 151 154 157 158 159 160 161 162 167 174 180 179 173 169 161 153 151 154 167 175 170 162 156 150 144 145 149 150 148 146 145 143 140 138 136 135 132 129 127 125 123 122 123 124 126 126 124 121 118 117 120 121 112 104 107
236 238 280 312 305 149 111 97 96 105 129 286 23 55 72 92 95 108 138 141 140 144 141 136 140 147 153 158 163 163 160 157 158 158 157 158 161 162 163 165 167 174 182 182 179 176 167 155 149 155 174 183 175 166 163 161 159 155 152 151 152 153 152 151 150 147 143 141 139 136 133 131 128 126 126 128 131 131 129 126 125 124 127 129 121 111 109
253 303 320 307 297 256 145 134 128 135 162 184 145 96 93 104 108 125 157 148 123 134 149 151 152 158 164 170 171 168 161 157 157 157 157 159 162 164 166 169 171 178 185 186 183 178 170 155 142 146 166 183 182 175 171 171 171 166 158 154 154 157 158 158 158 155 152 149 146 143 140 137 134 133 132 134 136 137 136 135 134 133 135 135 130 120 117
262 318 307 296 291 244 156 141 138 144 153 153 142 139 142 137 137 150 171 162 134 127 143 152 159 167 171 171 167 162 156 153 154 155 157 159 162 165 170 175 179 185 189 189 185 179 173 161 143 136 148 173 185 187 187 184 177 170 164 161 160 161 163 165 165 162 159 157 155 151 148 145 143 141 140 141 142 144 145 144 144 145 145 143 138 132 129
156 234 259 341 19 64 159 168 165 162 165 170 168 167 169 159 151 160 169 155 137 127 123 130 143 156 163 165 162 156 151 150 152 155 158 161 164 168 173 179 183 189 194 194 190 186 181 171 157 143 139 153 174 187 190 187 180 174 170 167 166 165 165 169 171 169 164 163 163 161 157 155 154 151 149 149 150 150 151 153 154 155 155 152 148 144 140
160 177 187 176 132 100 184 210 207 188 175 172 164 160 169 175 172 170 167 154 143 143 138 128 131 143 153 158 158 154 150 149 155 163 164 165 167 170 174 180 185 190 195 196 194 194 192 183 170 160 152 148 158 170 175 175 175 174 173 172 171 170 170 172 174 174 174 172 171 169 167 165 164 161 157 156 157 158 159 160 161 162 162 160 158 157 153
149 159 180 192 190 155 146 181 197 196 185 172 164 168 184 191 188 180 173 166 157 146 134 124 126 140 149 151 155 164 167 166 168 172 172 170 171 173 174 177 182 186 190 194 196 199 202 198 187 178 172 162 156 162 169 173 175 175 172 172 173 176 181 183 181 180 181 180 178 176 175 172 171 170 168 165 165 167 168 169 170 170 169 167 167 168 166
91 80 49 24 25 48 91 146 174 183 184 183 184 185 186 190 197 201 190 164 146 140 136 132 132 137 145 151 163 192 202 183 171 173 177 174 171 171 171 173 178 180 183 191 198 202 206 207 200 192 188 179 167 162 166 174 180 179 176 176 178 181 186 191 192 192 193 191 189 186 182 178 176 177 177 175 175 176 176 178 179 179 178 175 174 175 175
70 84 79 43 32 41 45 45 152 185 187 186 187 190 190 193 204 211 198 156 139 142 150 157 159 166 179 180 183 212 234 207 178 175 179 174 169 168 168 171 176 177 179 189 198 201 206 208 202 197 196 191 181 173 168 172 179 183 183 186 190 189 184 187 198 205 202 199 197 194 189 183 181 181 182 182 183 185 185 185 187 188 188 186 183 183 183
35 46 56 52 47 54 50 41 40 183 202 195 188 194 199 202 208 210 191 154 148 157 170 177 176 177 182 183 185 205 226 216 186 174 176 174 168 166 167 170 175 178 185 194 198 200 204 205 200 199 199 191 182 179 178 178 183 187 190 195 199 196 194 208 216 197 189 190 194 197 195 190 188 187 186 186 188 191 194 195 193 194 196 195 193 194 194
15 16 23 30 39 53 66 66 62 75 225 226 218 211 207 204 204 200 175 154 160 173 183 185 181 178 179 181 187 201 212 206 187 175 176 176 171 170 174 181 186 190 195 198 197 199 203 202 199 201 201 192 182 180 182 186 191 194 197 203 203 198 203 226 213 183 174 178 187 193 196 197 196 195 193 191 193 196 201 201 198 196 199 200 199 198 198
7 359 5 15 23 34 67 98 93 84 245 244 239 230 215 194 187 183 165 154 165 179 185 184 181 180 182 186 192 198 200 195 185 177 176 177 175 174 177 186 191 194 197 198 197 199 202 202 201 203 201 195 190 187 186 189 196 198 197 199 199 199 208 217 200 182 174 172 175 179 186 193 197 196 194 195 197 200 202 203 201 198 200 203 202 199 197
346 345 357 360 338 327 281 154 147 162 244 244 232 220 205 186 177 177 171 164 167 176 183 185 185 188 190 192 194 194 192 188 183 178 176 176 175 172 175 189 193 193 195 198 199 199 201 202 202 202 201 199 198 197 195 196 200 200 198 196 194 193 199 197 186 180 180 181 179 178 183 189 192 188 184 190 196 199 201 203 203 201 201 203 202 198 195
329 333 340 333 320 316 266 176 169 205 244 235 220 210 205 198 190 188 185 175 170 174 181 187 191 195 196 194 190 187 185 183 180 179 180 182 181 179 182 192 193 192 194 198 199 198 199 200 201 202 201 200 201 202 201 202 204 205 205 202 197 193 193 189 180 176 179 188 195 199 200 199 198 197 193 189 193 198 200 201 201 201 200 200 200 198 198
303 312 314 311 323 344 281 200 215 253 265 255 237 220 215 211 202 192 185 180 175 175 179 186 193 198 197 189 180 177 181 183 181 180 183 188 191 191 190 189 190 192 195 197 197 197 198 198 200 202 201 201 202 204 204 205 209 211 211 209 206 204 207 206 196 186 185 193 204 212 213 208 201 202 201 187 176 185 196 201 203 203 201 200 201 202 201
294 289 289 285 282 64 17 293 249 248 268 272 257 230 221 219 211 197 188 185 184 183 182 185 189 192 192 187 180 177 180 182 180 176 174 182 195 199 196 190 188 193 197 198 197 198 199 201 202 204 205 206 207 207 205 208 212 213 213 215 213 210 214 225 219 202 194 197 207 212 205 189 174 172 178 175 161 158 175 193 202 206 205 205 206 205 200
300 298 301 306 232 135 307 309 271 244 265 268 253 232 225 222 215 208 199 192 190 189 189 188 188 189 190 189 185 185 186 186 181 176 173 177 196 205 201 193 191 194 198 200 200 200 202 205 206 207 208 209 208 205 206 209 212 214 216 218 216 217 228 238 223 199 189 193 202 201 188 177 167 161 167 177 178 164 154 162 181 198 204 206 206 202 195
304 298 296 296 284 268 268 270 270 275 281 276 261 253 247 232 216 213 211 206 201 199 197 195 194 193 192 187 180 175 175 177 181 184 187 190 195 196 194 193 197 199 199 199 201 202 204 206 206 205 204 203 202 203 205 207 212 218 220 216 217 228 236 226 205 189 181 184 189 186 181 177 171 164 164 171 176 172 159 152 156 171 188 196 199 198 195
294 279 268 261 251 242 240 247 256 261 264 261 254 255 253 241 225 221 221 218 213 209 204 201 199 198 195 189 181 172 163 158 167 185 193 194 193 190 186 187 195 201 201 200 200 203 204 203 202 200 198 197 198 200 201 203 212 222 216 212 222 234 220 199 188 181 176 170 166 166 167 168 165 163 164 167 169 166 162 158 156 159 168 179 187 192 195
292 272 271 263 240 219 212 218 229 235 236 236 240 243 244 240 233 229 227 221 212 207 204 202 200 199 197 196 194 190 183 174 171 184 192 192 192 191 187 186 191 200 203 202 202 202 203 201 198 195 195 196 198 198 198 205 217 219 211 213 227 225 198 183 179 176 172 168 165 164 164 165 165 166 167 168 168 167 164 162 160 160 163 167 172 178 185
320 312 310 297 246 213 204 199 207 238 250 247 243 239 234 227 223 222 219 210 202 198 198 199 200 201 202 202 203 201 196 193 194 197 196 193 191 189 187 187 190 195 200 202 201 200 200 200 197 194 195 197 199 199 203 211 214 210 210 221 225 204 184 177 176 175 173 172 172 172 171 173 176 177 176 173 171 169 168 167 165 162 162 164 167 169 173
322 321 315 297 263 240 227 218 225 246 253 250 244 234 221 211 209 212 207 201 198 198 198 199 202 205 207 208 209 207 203 203 205 204 199 195 191 188 186 186 188 191 196 202 201 197 195 196 197 196 196 199 201 204 208 209 205 204 213 219 206 188 178 176 176 176 175 175 175 175 177 179 179 177 177 176 173 170 170 170 169 166 165 164 162 161 163
313 304 299 295 291 283 273 266 265 264 259 250 240 226 214 211 213 211 202 196 197 198 197 199 204 207 207 209 211 208 204 204 207 204 196 191 188 185 182 182 184 186 191 198 201 197 192 192 196 198 199 201 206 210 207 199 196 202 208 199 186 179 177 177 176 176 176 176 176 178 181 183 181 180 179 179 176 173 172 171 168 165 164 163 159 156 157
316 316 317 317 314 309 302 297 294 287 272 257 240 224 217 218 218 207 193 192 196 198 196 196 202 208 208 207 207 205 203 202 201 198 192 188 184 180 178 180 184 186 188 194 201 199 194 194 199 202 201 203 208 208 199 191 192 200 198 187 181 179 180 180 179 178 178 178 179 182 185 185 185 186 185 184 182 180 177 174 171 168 165 163 160 157 155